QPF
0.00 0.01 0.01 0.01 0.01 0.01 0.02 0.03 0.03 0.03 0.04 0.04 0.03 0.02 0.02 0.02 0.02 0.03 0.03 0.03 0.05 0.07 0.08 0.10 0.10 0.09 0.07 0.05 0.07 0.08 0.08 0.08 0.07 0.08 0.10 0.10 0.09 0.13 0.12 0.13 0.15 0.13 0.12
0.00 0.01 0.01 0.01 0.01 0.01 0.02 0.03 0.04 0.05 0.06 0.05 0.03 0.02 0.02 0.03 0.03 0.03 0.03 0.03 0.05 0.08 0.09 0.13 0.12 0.12 0.11 0.10 0.11 0.11 0.08 0.06 0.06 0.07 0.10 0.12 0.10 0.11 0.12 0.10 0.12 0.15 0.14
0.00 0.00 0.01 0.01 0.01 0.01 0.01 0.02 0.04 0.05 0.06 0.05 0.04 0.03 0.03 0.04 0.05 0.04 0.03 0.05 0.08 0.11 0.15 0.19 0.21 0.18 0.16 0.17 0.15 0.13 0.08 0.07 0.06 0.08 0.10 0.13 0.12 0.11 0.13 0.15 0.14 0.15 0.16
0.00 0.00 0.01 0.01 0.01 0.01 0.01 0.02 0.03 0.04 0.04 0.04 0.03 0.04 0.05 0.07 0.08 0.06 0.06 0.08 0.09 0.09 0.14 0.24 0.34 0.32 0.24 0.18 0.13 0.10 0.08 0.07 0.09 0.09 0.11 0.13 0.13 0.12 0.13 0.15 0.15 0.15 0.16
0.00 0.00 0.01 0.02 0.02 0.02 0.01 0.01 0.02 0.04 0.05 0.05 0.04 0.04 0.06 0.08 0.08 0.08 0.10 0.10 0.09 0.07 0.06 0.07 0.10 0.16 0.14 0.11 0.09 0.08 0.09 0.10 0.12 0.09 0.09 0.11 0.12 0.13 0.12 0.13 0.14 0.12 0.14
0.01 0.01 0.01 0.01 0.02 0.03 0.02 0.02 0.03 0.05 0.09 0.10 0.09 0.08 0.08 0.10 0.13 0.14 0.15 0.12 0.10 0.08 0.08 0.07 0.07 0.08 0.08 0.07 0.06 0.08 0.09 0.08 0.07 0.05 0.05 0.07 0.08 0.09 0.09 0.11 0.15 0.11 0.12
0.01 0.01 0.02 0.02 0.02 0.03 0.02 0.02 0.03 0.05 0.08 0.11 0.14 0.16 0.13 0.11 0.12 0.14 0.15 0.10 0.07 0.08 0.09 0.08 0.07 0.07 0.07 0.07 0.07 0.08 0.09 0.06 0.04 0.03 0.03 0.05 0.06 0.07 0.08 0.09 0.14 0.13 0.13
0.01 0.01 0.01 0.02 0.03 0.03 0.02 0.03 0.03 0.04 0.05 0.06 0.11 0.19 0.16 0.11 0.10 0.10 0.10 0.09 0.07 0.07 0.07 0.08 0.09 0.09 0.08 0.10 0.09 0.10 0.10 0.06 0.03 0.02 0.02 0.05 0.05 0.08 0.09 0.08 0.09 0.09 0.10
0.01 0.01 0.01 0.02 0.03 0.03 0.04 0.04 0.03 0.03 0.04 0.05 0.07 0.11 0.11 0.10 0.09 0.08 0.08 0.07 0.06 0.08 0.09 0.09 0.12 0.13 0.12 0.12 0.11 0.11 0.13 0.07 0.04 0.04 0.04 0.04 0.04 0.10 0.12 0.09 0.08 0.09 0.08
0.01 0.01 0.01 0.01 0.03 0.03 0.04 0.04 0.05 0.04 0.04 0.05 0.06 0.07 0.08 0.08 0.07 0.07 0.06 0.06 0.06 0.08 0.09 0.09 0.12 0.14 0.14 0.13 0.11 0.10 0.13 0.09 0.05 0.05 0.04 0.03 0.05 0.14 0.17 0.12 0.08 0.09 0.09
0.01 0.01 0.01 0.02 0.03 0.04 0.04 0.04 0.04 0.04 0.04 0.05 0.07 0.06 0.06 0.06 0.06 0.05 0.05 0.05 0.05 0.05 0.06 0.07 0.07 0.07 0.07 0.09 0.09 0.08 0.11 0.11 0.05 0.04 0.03 0.03 0.04 0.09 0.16 0.17 0.13 0.10 0.10
0.01 0.01 0.01 0.02 0.02 0.03 0.04 0.05 0.05 0.05 0.04 0.04 0.05 0.06 0.04 0.04 0.05 0.05 0.06 0.07 0.10 0.08 0.08 0.09 0.09 0.05 0.06 0.08 0.09 0.09 0.09 0.10 0.07 0.04 0.03 0.05 0.06 0.07 0.10 0.20 0.19 0.15 0.13
0.01 0.01 0.01 0.02 0.02 0.03 0.04 0.04 0.04 0.04 0.04 0.03 0.03 0.03 0.04 0.04 0.03 0.04 0.06 0.10 0.17 0.14 0.12 0.09 0.09 0.06 0.05 0.07 0.16 0.16 0.11 0.07 0.08 0.05 0.04 0.04 0.06 0.08 0.09 0.13 0.18 0.20 0.17
0.01 0.01 0.02 0.03 0.03 0.03 0.04 0.05 0.05 0.05 0.04 0.03 0.04 0.03 0.03 0.03 0.03 0.03 0.04 0.05 0.09 0.11 0.09 0.06 0.06 0.05 0.05 0.09 0.12 0.13 0.11 0.06 0.08 0.07 0.06 0.05 0.05 0.07 0.09 0.10 0.11 0.13 0.13
0.01 0.01 0.02 0.03 0.04 0.03 0.04 0.06 0.07 0.05 0.04 0.04 0.03 0.04 0.04 0.04 0.03 0.03 0.03 0.04 0.05 0.06 0.08 0.06 0.05 0.05 0.05 0.05 0.07 0.10 0.10 0.08 0.08 0.08 0.06 0.06 0.05 0.06 0.07 0.08 0.08 0.08 0.09
0.01 0.02 0.03 0.04 0.05 0.03 0.03 0.05 0.05 0.03 0.02 0.02 0.02 0.02 0.03 0.05 0.05 0.05 0.06 0.05 0.04 0.05 0.05 0.06 0.06 0.06 0.05 0.05 0.06 0.07 0.07 0.06 0.06 0.06 0.04 0.05 0.05 0.04 0.05 0.05 0.06 0.06 0.07
0.02 0.03 0.02 0.03 0.05 0.04 0.03 0.04 0.04 0.02 0.02 0.01 0.01 0.02 0.01 0.03 0.06 0.08 0.09 0.07 0.05 0.04 0.04 0.05 0.06 0.06 0.05 0.04 0.04 0.04 0.05 0.06 0.06 0.06 0.05 0.04 0.04 0.03 0.03 0.03 0.04 0.04 0.04
0.02 0.03 0.02 0.02 0.03 0.03 0.03 0.03 0.03 0.03 0.02 0.02 0.01 0.02 0.01 0.01 0.02 0.04 0.06 0.07 0.07 0.07 0.06 0.05 0.05 0.05 0.04 0.04 0.04 0.05 0.04 0.06 0.06 0.06 0.05 0.04 0.03 0.03 0.03 0.02 0.04 0.04 0.05
0.02 0.03 0.02 0.02 0.02 0.02 0.03 0.04 0.04 0.03 0.03 0.02 0.02 0.03 0.02 0.02 0.01 0.02 0.03 0.04 0.04 0.05 0.08 0.09 0.06 0.04 0.04 0.04 0.04 0.04 0.04 0.04 0.04 0.04 0.05 0.03 0.03 0.02 0.02 0.04 0.04 0.04 0.05
0.01 0.02 0.02 0.02 0.02 0.02 0.02 0.03 0.06 0.04 0.04 0.04 0.04 0.04 0.03 0.03 0.02 0.03 0.03 0.03 0.02 0.02 0.03 0.07 0.09 0.07 0.04 0.03 0.03 0.02 0.03 0.03 0.03 0.03 0.03 0.03 0.02 0.02 0.02 0.03 0.03 0.03 0.04
0.01 0.01 0.02 0.03 0.02 0.02 0.02 0.02 0.03 0.04 0.04 0.04 0.03 0.04 0.04 0.04 0.03 0.04 0.04 0.04 0.03 0.02 0.02 0.03 0.04 0.05 0.05 0.04 0.04 0.04 0.04 0.05 0.05 0.05 0.04 0.04 0.03 0.03 0.03 0.02 0.02 0.03 0.03
0.01 0.01 0.01 0.02 0.02 0.02 0.02 0.02 0.02 0.04 0.04 0.03 0.03 0.05 0.05 0.04 0.04 0.04 0.04 0.03 0.03 0.02 0.02 0.02 0.03 0.03 0.03 0.05 0.06 0.06 0.06 0.08 0.08 0.07 0.06 0.04 0.03 0.03 0.03 0.02 0.02 0.03 0.05
0.00 0.00 0.00 0.01 0.02 0.02 0.02 0.02 0.02 0.03 0.04 0.03 0.03 0.04 0.03 0.02 0.03 0.03 0.03 0.03 0.02 0.02 0.02 0.02 0.03 0.03 0.04 0.04 0.05 0.07 0.08 0.09 0.10 0.11 0.10 0.08 0.07 0.06 0.04 0.03 0.03 0.03 0.04
0.01 0.00 0.01 0.01 0.01 0.01 0.01 0.01 0.01 0.02 0.03 0.03 0.04 0.04 0.04 0.02 0.02 0.02 0.02 0.02 0.02 0.01 0.02 0.02 0.02 0.04 0.05 0.04 0.04 0.04 0.05 0.05 0.07 0.10 0.10 0.08 0.07 0.06 0.05 0.04 0.03 0.03 0.03
0.00 0.01 0.01 0.01 0.01 0.01 0.01 0.01 0.01 0.02 0.02 0.02 0.03 0.05 0.05 0.03 0.02 0.02 0.02 0.02 0.02 0.03 0.03 0.02 0.03 0.04 0.04 0.04 0.04 0.04 0.05 0.05 0.05 0.06 0.07 0.05 0.04 0.03 0.02 0.02 0.02 0.02 0.03
0.01 0.01 0.01 0.01 0.01 0.01 0.01 0.01 0.02 0.02 0.03 0.04 0.05 0.07 0.05 0.04 0.04 0.03 0.03 0.03 0.03 0.04 0.04 0.03 0.04 0.04 0.04 0.04 0.04 0.05 0.05 0.05 0.05 0.06 0.06 0.06 0.04 0.03 0.02 0.02 0.01 0.01 0.02
MSLP
1009.82 1009.69 1009.71 1009.88 1010.13 1010.43 1010.68 1010.85 1010.93 1010.93 1010.90 1010.88 1010.94 1011.10 1011.34 1011.64 1011.94 1012.20 1012.38 1012.46 1012.46 1012.42 1012.37 1012.36 1012.40 1012.49 1012.62 1012.76 1012.86 1012.93 1012.94 1012.93 1012.91 1012.93 1012.99 1013.12 1013.31 1013.54 1013.78 1014.02 1014.25 1014.45 1014.64
1009.88 1009.84 1009.92 1010.14 1010.42 1010.72 1010.96 1011.11 1011.17 1011.15 1011.11 1011.11 1011.20 1011.39 1011.66 1011.99 1012.30 1012.56 1012.71 1012.77 1012.74 1012.68 1012.62 1012.60 1012.65 1012.76 1012.90 1013.03 1013.12 1013.15 1013.12 1013.05 1012.98 1012.94 1012.97 1013.08 1013.26 1013.50 1013.78 1014.06 1014.34 1014.59 1014.82
1009.87 1009.90 1010.06 1010.32 1010.65 1010.97 1011.22 1011.37 1011.43 1011.41 1011.38 1011.40 1011.51 1011.71 1012.00 1012.33 1012.63 1012.87 1013.00 1013.03 1012.98 1012.91 1012.86 1012.86 1012.93 1013.05 1013.19 1013.31 1013.37 1013.35 1013.26 1013.13 1013.00 1012.92 1012.92 1013.01 1013.20 1013.47 1013.78 1014.12 1014.44 1014.74 1015.02
1009.79 1009.88 1010.11 1010.44 1010.81 1011.17 1011.45 1011.62 1011.70 1011.70 1011.70 1011.74 1011.86 1012.07 1012.35 1012.66 1012.94 1013.15 1013.26 1013.27 1013.23 1013.17 1013.14 1013.16 1013.25 1013.39 1013.52 1013.62 1013.63 1013.56 1013.41 1013.22 1013.03 1012.91 1012.89 1012.98 1013.19 1013.48 1013.84 1014.21 1014.57 1014.91 1015.22
1009.67 1009.82 1010.10 1010.48 1010.91 1011.31 1011.64 1011.85 1011.96 1012.01 1012.03 1012.09 1012.23 1012.44 1012.71 1012.99 1013.25 1013.43 1013.52 1013.54 1013.51 1013.47 1013.48 1013.54 1013.65 1013.79 1013.91 1013.96 1013.93 1013.79 1013.58 1013.34 1013.11 1012.97 1012.94 1013.04 1013.27 1013.59 1013.96 1014.35 1014.74 1015.09 1015.40
1009.58 1009.76 1010.08 1010.50 1010.97 1011.42 1011.79 1012.05 1012.20 1012.29 1012.35 1012.44 1012.59 1012.80 1013.05 1013.31 1013.54 1013.71 1013.80 1013.82 1013.82 1013.83 1013.87 1013.96 1014.09 1014.23 1014.32 1014.33 1014.24 1014.05 1013.79 1013.51 1013.27 1013.13 1013.11 1013.23 1013.47 1013.80 1014.18 1014.56 1014.93 1015.25 1015.54
1009.58 1009.77 1010.10 1010.54 1011.03 1011.51 1011.91 1012.20 1012.40 1012.53 1012.63 1012.74 1012.90 1013.11 1013.36 1013.60 1013.82 1013.98 1014.07 1014.12 1014.16 1014.20 1014.28 1014.40 1014.54 1014.66 1014.72 1014.69 1014.55 1014.32 1014.03 1013.75 1013.52 1013.40 1013.41 1013.55 1013.81 1014.14 1014.49 1014.83 1015.14 1015.41 1015.64
1009.70 1009.88 1010.20 1010.64 1011.12 1011.60 1012.00 1012.32 1012.54 1012.70 1012.83 1012.97 1013.15 1013.37 1013.61 1013.85 1014.05 1014.22 1014.33 1014.40 1014.47 1014.55 1014.66 1014.79 1014.92 1015.02 1015.05 1014.98 1014.82 1014.57 1014.29 1014.03 1013.84 1013.77 1013.83 1014.00 1014.27 1014.57 1014.88 1015.15 1015.37 1015.56 1015.71
1009.94 1010.11 1010.41 1010.81 1011.26 1011.70 1012.09 1012.39 1012.62 1012.80 1012.95 1013.11 1013.31 1013.54 1013.78 1014.02 1014.24 1014.41 1014.53 1014.63 1014.72 1014.82 1014.94 1015.08 1015.20 1015.27 1015.28 1015.19 1015.01 1014.78 1014.54 1014.33 1014.21 1014.21 1014.32 1014.53 1014.80 1015.07 1015.32 1015.50 1015.63 1015.71 1015.79
1010.28 1010.44 1010.71 1011.06 1011.45 1011.84 1012.18 1012.45 1012.66 1012.83 1013.00 1013.18 1013.39 1013.63 1013.89 1014.14 1014.36 1014.54 1014.68 1014.79 1014.90 1015.01 1015.13 1015.25 1015.36 1015.41 1015.39 1015.30 1015.14 1014.95 1014.76 1014.63 1014.60 1014.67 1014.85 1015.09 1015.36 1015.60 1015.78 1015.89 1015.92 1015.91 1015.89
1010.66 1010.81 1011.05 1011.36 1011.68 1012.00 1012.27 1012.49 1012.67 1012.83 1012.99 1013.19 1013.41 1013.67 1013.95 1014.21 1014.44 1014.63 1014.78 1014.90 1015.01 1015.12 1015.23 1015.34 1015.42 1015.46 1015.44 1015.35 1015.22 1015.08 1014.96 1014.92 1014.96 1015.12 1015.35 1015.63 1015.90 1016.11 1016.24 1016.28 1016.23 1016.15 1016.07
1011.01 1011.18 1011.40 1011.66 1011.93 1012.18 1012.38 1012.55 1012.69 1012.82 1012.98 1013.18 1013.42 1013.70 1013.98 1014.26 1014.50 1014.70 1014.86 1014.98 1015.09 1015.19 1015.29 1015.38 1015.45 1015.48 1015.46 1015.39 1015.30 1015.21 1015.16 1015.19 1015.31 1015.52 1015.80 1016.10 1016.37 1016.57 1016.67 1016.67 1016.57 1016.44 1016.32
1011.28 1011.48 1011.71 1011.95 1012.17 1012.36 1012.51 1012.62 1012.72 1012.84 1012.99 1013.19 1013.44 1013.73 1014.03 1014.32 1014.57 1014.78 1014.94 1015.07 1015.18 1015.27 1015.37 1015.45 1015.51 1015.54 1015.53 1015.48 1015.42 1015.38 1015.38 1015.45 1015.62 1015.87 1016.17 1016.48 1016.75 1016.95 1017.04 1017.02 1016.92 1016.77 1016.63
1011.44 1011.69 1011.94 1012.18 1012.38 1012.53 1012.64 1012.72 1012.80 1012.89 1013.03 1013.24 1013.50 1013.79 1014.10 1014.40 1014.67 1014.88 1015.05 1015.18 1015.29 1015.39 1015.49 1015.57 1015.64 1015.68 1015.68 1015.66 1015.62 1015.61 1015.63 1015.73 1015.90 1016.16 1016.45 1016.75 1017.02 1017.21 1017.31 1017.31 1017.22 1017.09 1016.94
1011.50 1011.80 1012.09 1012.34 1012.54 1012.68 1012.78 1012.84 1012.91 1012.99 1013.13 1013.33 1013.59 1013.89 1014.20 1014.50 1014.77 1015.00 1015.18 1015.32 1015.45 1015.56 1015.67 1015.77 1015.85 1015.91 1015.93 1015.93 1015.91 1015.91 1015.93 1016.02 1016.17 1016.39 1016.65 1016.92 1017.17 1017.36 1017.47 1017.50 1017.45 1017.34 1017.21
1011.46 1011.81 1012.14 1012.43 1012.65 1012.81 1012.91 1012.98 1013.04 1013.13 1013.27 1013.46 1013.71 1014.00 1014.31 1014.60 1014.87 1015.10 1015.29 1015.46 1015.60 1015.74 1015.88 1016.00 1016.11 1016.20 1016.25 1016.27 1016.26 1016.26 1016.26 1016.31 1016.41 1016.56 1016.76 1016.98 1017.20 1017.38 1017.50 1017.56 1017.55 1017.48 1017.36
1011.37 1011.77 1012.14 1012.45 1012.71 1012.89 1013.02 1013.11 1013.19 1013.28 1013.41 1013.60 1013.83 1014.10 1014.39 1014.67 1014.93 1015.17 1015.38 1015.56 1015.73 1015.90 1016.07 1016.23 1016.38 1016.50 1016.58 1016.62 1016.63 1016.61 1016.59 1016.59 1016.62 1016.70 1016.82 1016.96 1017.12 1017.28 1017.41 1017.49 1017.51 1017.46 1017.35
1011.26 1011.68 1012.08 1012.43 1012.72 1012.94 1013.10 1013.22 1013.32 1013.42 1013.55 1013.72 1013.92 1014.17 1014.43 1014.69 1014.94 1015.18 1015.40 1015.60 1015.81 1016.01 1016.21 1016.41 1016.59 1016.74 1016.86 1016.92 1016.94 1016.93 1016.88 1016.84 1016.80 1016.79 1016.82 1016.88 1016.97 1017.08 1017.19 1017.28 1017.32 1017.30 1017.20
1011.14 1011.58 1012.00 1012.38 1012.69 1012.95 1013.15 1013.30 1013.42 1013.53 1013.66 1013.81 1013.99 1014.20 1014.43 1014.67 1014.91 1015.14 1015.37 1015.59 1015.81 1016.04 1016.27 1016.49 1016.70 1016.89 1017.04 1017.14 1017.18 1017.17 1017.12 1017.04 1016.94 1016.86 1016.79 1016.76 1016.78 1016.82 1016.89 1016.97 1017.02 1017.01 1016.92
1011.00 1011.45 1011.88 1012.28 1012.62 1012.92 1013.15 1013.33 1013.48 1013.61 1013.73 1013.87 1014.02 1014.20 1014.40 1014.62 1014.84 1015.07 1015.30 1015.54 1015.77 1016.01 1016.26 1016.50 1016.73 1016.94 1017.11 1017.24 1017.32 1017.33 1017.29 1017.19 1017.06 1016.91 1016.76 1016.65 1016.57 1016.54 1016.56 1016.60 1016.64 1016.65 1016.57
1010.80 1011.26 1011.71 1012.12 1012.50 1012.83 1013.10 1013.33 1013.50 1013.65 1013.78 1013.90 1014.04 1014.19 1014.37 1014.56 1014.78 1015.01 1015.25 1015.49 1015.73 1015.97 1016.21 1016.44 1016.67 1016.89 1017.08 1017.24 1017.35 1017.40 1017.39 1017.30 1017.16 1016.97 1016.76 1016.56 1016.39 1016.29 1016.24 1016.24 1016.26 1016.26 1016.21
1010.51 1010.99 1011.45 1011.89 1012.30 1012.67 1012.99 1013.26 1013.48 1013.65 1013.79 1013.92 1014.04 1014.18 1014.34 1014.53 1014.75 1014.98 1015.22 1015.46 1015.70 1015.93 1016.15 1016.36 1016.57 1016.78 1016.98 1017.17 1017.31 1017.41 1017.43 1017.38 1017.24 1017.03 1016.78 1016.52 1016.28 1016.09 1015.97 1015.92 1015.91 1015.92 1015.89
1010.09 1010.59 1011.08 1011.56 1012.01 1012.43 1012.81 1013.13 1013.39 1013.60 1013.76 1013.89 1014.02 1014.16 1014.32 1014.51 1014.73 1014.98 1015.23 1015.47 1015.70 1015.91 1016.10 1016.27 1016.45 1016.64 1016.83 1017.03 1017.21 1017.35 1017.43 1017.42 1017.31 1017.11 1016.84 1016.53 1016.22 1015.96 1015.78 1015.68 1015.65 1015.65 1015.65
1009.50 1010.05 1010.58 1011.10 1011.61 1012.09 1012.53 1012.91 1013.22 1013.47 1013.66 1013.81 1013.95 1014.09 1014.25 1014.46 1014.69 1014.95 1015.22 1015.47 1015.69 1015.88 1016.03 1016.17 1016.31 1016.46 1016.64 1016.83 1017.04 1017.23 1017.36 1017.41 1017.35 1017.18 1016.91 1016.58 1016.23 1015.92 1015.68 1015.53 1015.48 1015.48 1015.50
1008.77 1009.36 1009.95 1010.52 1011.09 1011.63 1012.14 1012.58 1012.95 1013.24 1013.46 1013.63 1013.77 1013.92 1014.09 1014.31 1014.56 1014.84 1015.12 1015.39 1015.61 1015.78 1015.91 1016.01 1016.10 1016.22 1016.37 1016.57 1016.80 1017.02 1017.21 1017.32 1017.32 1017.19 1016.95 1016.63 1016.27 1015.92 1015.64 1015.46 1015.39 1015.39 1015.42
1007.94 1008.58 1009.21 1009.84 1010.46 1011.07 1011.64 1012.14 1012.56 1012.89 1013.13 1013.31 1013.46 1013.60 1013.78 1014.00 1014.27 1014.57 1014.87 1015.15 1015.38 1015.55 1015.66 1015.74 1015.80 1015.88 1016.02 1016.21 1016.45 1016.71 1016.95 1017.12 1017.19 1017.12 1016.93 1016.63 1016.28 1015.93 1015.64 1015.44 1015.34 1015.34 1015.39
Thickness
5813 5809 5797 5794 5791 5789 5787 5786 5784 5782 5780 5778 5776 5775 5774 5772 5772 5772 5771 5770 5769 5768 5767 5766 5765 5764 5763 5763 5762 5761 5760 5760 5759 5759 5758 5757 5756 5755 5754 5753 5753 5752 5749
5815 5808 5796 5792 5790 5788 5785 5783 5782 5780 5778 5776 5774 5772 5771 5771 5770 5770 5770 5768 5767 5765 5764 5763 5763 5762 5761 5760 5759 5758 5758 5758 5757 5757 5756 5756 5755 5753 5752 5752 5752 5751 5747
5813 5805 5796 5791 5788 5786 5784 5781 5779 5777 5775 5773 5772 5770 5769 5769 5768 5768 5767 5766 5764 5763 5763 5762 5761 5760 5760 5759 5758 5757 5756 5756 5756 5756 5756 5757 5755 5752 5751 5750 5749 5748 5746
5811 5805 5797 5789 5786 5784 5782 5779 5777 5775 5774 5772 5770 5768 5768 5767 5766 5765 5764 5764 5763 5761 5761 5760 5759 5759 5758 5757 5756 5755 5754 5754 5755 5755 5758 5758 5756 5752 5750 5749 5748 5746 5744
5809 5803 5794 5788 5785 5782 5780 5778 5775 5773 5772 5770 5768 5767 5766 5765 5764 5763 5762 5761 5760 5759 5758 5758 5758 5757 5756 5755 5755 5754 5753 5753 5754 5756 5758 5757 5755 5751 5749 5748 5747 5745 5743
5807 5802 5793 5786 5783 5780 5778 5776 5774 5772 5770 5769 5767 5765 5764 5763 5761 5761 5760 5759 5758 5757 5756 5756 5755 5755 5754 5754 5753 5753 5752 5752 5754 5758 5757 5756 5755 5750 5748 5747 5746 5744 5742
5805 5801 5792 5784 5781 5778 5776 5774 5772 5770 5768 5766 5765 5763 5762 5760 5759 5758 5757 5757 5756 5755 5754 5754 5753 5753 5753 5752 5752 5751 5751 5752 5756 5757 5757 5755 5753 5749 5747 5746 5745 5743 5742
5802 5798 5790 5782 5779 5776 5774 5771 5769 5767 5765 5764 5762 5761 5759 5758 5756 5755 5755 5754 5753 5753 5752 5751 5751 5751 5750 5750 5750 5749 5750 5751 5754 5756 5755 5754 5749 5747 5745 5744 5743 5742 5741
5800 5795 5790 5785 5778 5774 5771 5769 5767 5765 5763 5761 5759 5758 5757 5756 5754 5753 5752 5751 5751 5751 5750 5750 5749 5749 5748 5748 5748 5748 5748 5749 5754 5755 5754 5752 5747 5745 5744 5742 5741 5740 5739
5796 5793 5788 5785 5781 5776 5772 5767 5765 5762 5760 5759 5757 5756 5755 5754 5752 5751 5751 5749 5749 5749 5748 5748 5747 5747 5746 5746 5746 5746 5747 5749 5753 5754 5753 5750 5746 5744 5743 5742 5740 5739 5737
5791 5790 5787 5784 5780 5777 5774 5768 5764 5761 5758 5757 5755 5754 5754 5755 5753 5751 5749 5747 5747 5746 5746 5745 5745 5744 5744 5745 5745 5745 5746 5750 5752 5752 5750 5746 5744 5743 5742 5740 5739 5737 5736
5787 5787 5785 5782 5779 5776 5773 5768 5765 5762 5759 5757 5756 5754 5754 5752 5752 5750 5746 5746 5746 5745 5744 5744 5743 5744 5745 5746 5745 5744 5747 5749 5749 5749 5747 5743 5741 5740 5740 5739 5737 5735 5733
5788 5784 5783 5780 5777 5774 5771 5768 5765 5763 5758 5757 5754 5752 5751 5750 5750 5749 5748 5745 5744 5744 5745 5744 5745 5746 5746 5745 5745 5745 5745 5747 5747 5747 5745 5741 5739 5737 5737 5736 5734 5733 5731
5786 5782 5780 5777 5774 5771 5769 5766 5763 5762 5759 5757 5752 5751 5750 5749 5748 5747 5746 5745 5745 5744 5743 5743 5744 5743 5743 5743 5743 5743 5743 5744 5744 5743 5741 5738 5735 5734 5734 5732 5731 5730 5728
5783 5780 5777 5775 5771 5767 5764 5763 5762 5759 5758 5755 5751 5749 5748 5748 5747 5746 5744 5742 5743 5743 5742 5741 5742 5741 5741 5742 5742 5742 5741 5740 5741 5740 5739 5735 5733 5731 5730 5730 5728 5727 5726
5781 5778 5776 5772 5768 5764 5762 5760 5759 5757 5754 5754 5751 5748 5746 5746 5744 5744 5742 5740 5741 5740 5740 5739 5739 5738 5739 5739 5739 5738 5739 5739 5738 5737 5738 5734 5731 5729 5728 5727 5726 5725 5724
5779 5776 5772 5769 5766 5762 5760 5759 5757 5756 5753 5752 5749 5746 5744 5743 5742 5741 5740 5739 5739 5738 5737 5737 5737 5737 5737 5737 5736 5736 5736 5736 5736 5734 5735 5734 5732 5728 5726 5725 5724 5723 5722
5778 5774 5771 5769 5764 5760 5758 5756 5756 5753 5751 5750 5748 5745 5742 5741 5739 5739 5739 5739 5736 5735 5735 5735 5735 5735 5735 5734 5734 5734 5735 5733 5733 5732 5732 5731 5730 5729 5726 5723 5722 5721 5720
5777 5772 5768 5766 5762 5759 5756 5754 5753 5750 5748 5747 5746 5744 5741 5739 5738 5738 5738 5736 5734 5734 5733 5733 5734 5733 5731 5731 5733 5732 5733 5732 5731 5731 5729 5728 5727 5726 5726 5723 5721 5719 5718
5774 5770 5767 5763 5760 5757 5754 5751 5750 5748 5746 5745 5744 5741 5739 5738 5737 5737 5736 5733 5733 5732 5730 5729 5728 5728 5728 5728 5731 5731 5731 5730 5729 5728 5727 5726 5724 5723 5723 5723 5721 5719 5716
5770 5766 5764 5761 5758 5754 5751 5749 5746 5745 5744 5742 5741 5738 5737 5736 5735 5734 5735 5731 5730 5730 5728 5728 5726 5726 5726 5727 5726 5726 5728 5728 5727 5725 5725 5724 5723 5721 5720 5720 5720 5719 5717
5766 5763 5761 5758 5756 5753 5750 5748 5746 5744 5742 5741 5739 5736 5734 5733 5732 5732 5730 5730 5728 5726 5725 5724 5722 5724 5725 5724 5722 5721 5721 5721 5722 5724 5723 5721 5720 5720 5719 5718 5717 5715 5715
5763 5761 5759 5756 5753 5751 5748 5746 5743 5740 5738 5736 5735 5734 5732 5731 5729 5728 5727 5727 5726 5726 5724 5722 5720 5719 5720 5721 5721 5718 5715 5714 5717 5720 5718 5719 5717 5716 5717 5715 5714 5713 5712
5761 5760 5756 5753 5750 5748 5745 5743 5740 5737 5734 5733 5732 5731 5730 5728 5727 5725 5725 5724 5723 5723 5721 5720 5720 5719 5717 5717 5717 5716 5716 5716 5711 5712 5715 5716 5714 5713 5713 5713 5712 5710 5709
5759 5757 5753 5750 5746 5744 5743 5740 5737 5735 5733 5732 5731 5727 5726 5725 5724 5723 5722 5720 5719 5719 5718 5717 5716 5715 5716 5714 5714 5714 5712 5711 5711 5707 5705 5708 5710 5711 5710 5709 5709 5708 5707
5755 5753 5750 5745 5742 5741 5739 5737 5733 5731 5728 5726 5724 5723 5723 5723 5721 5720 5719 5717 5716 5716 5715 5714 5713 5712 5712 5711 5711 5711 5710 5708 5707 5705 5701 5701 5702 5705 5706 5706 5706 5706 5705